Weather History for Wooster, OH

Change the Weather History Date:

Thursday, June 27, 2013

  Actual Average Record
Temperature  
Mean Temperature 73 °F -  
Max Temperature 80 °F 79 °F 91 °F (2005)
Min Temperature 66 °F 57 °F 50 °F (2004)
Cooling Degree Days 8    
Growing Degree Days 23 (Base 50)    
Moisture  
Dew Point 67 °F    
Average Humidity 86    
Maximum Humidity 100    
Minimum Humidity 64    
Precipitation  
Precipitation 0.39 in - - ()
Sea Level Pressure  
Sea Level Pressure 29.75 in    
Wind  
Wind Speed 4 mph (WNW)    
Max Wind Speed 14 mph    
Max Gust Speed 21 mph    
Visibility 8 miles    
Events Rain , Thunderstorm    
Averages and records for this station are not official NWS values.
T = Trace of Precipitation, MM = Missing Value Source: NWS Daily Summary

Daily Weather History Graph

Daily Weather History Graph

Search for Another Location

Airport:

Trip Planner

Search our weather history database for the weather conditions in past years. The results will help you decide how hot, cold, wet, or windy it might be!

Date:

Astronomy

Jun. 27, 2013 Rise Set
Actual Time 5:57 AM EDT 9:03 PM EDT
Civil Twilight 5:24 AM EDT 9:36 PM EDT
Nautical Twilight 4:41 AM EDT 10:19 PM EDT
Astronomical Twilight 3:51 AM EDT 11:09 PM EDT
Moon 11:57 PM EDT (6/27) 10:59 AM EDT (6/27)
Length of Visible Light 16h 12m
Length of Day
15h 05m
Waning Gibbous, 76% of the Moon is Illuminated
Jun 27
Waning Gibbous
Jun 30
Last Quarter
Jul 8
New
Jul 15
First Quarter
Jul 22
Full

Hourly Weather History & Observations

Time (EDT) Temp. Heat Index Dew Point Humidity Pressure Visibility Wind Dir Wind Speed Gust Speed Precip Events Conditions
12:56 AM 68.0 °F - 66.0 °F 93% 29.80 in 7.0 mi South 5.8 mph - 0.00 in Rain Light Rain
1:23 AM 68.0 °F - 66.2 °F 94% 29.82 in 4.0 mi SW 6.9 mph - 0.01 in Rain Rain
1:56 AM 68.0 °F - 66.0 °F 93% 29.79 in 6.0 mi SW 5.8 mph - 0.03 in Rain Light Rain
2:56 AM 68.0 °F - 66.0 °F 93% 29.78 in 6.0 mi West 4.6 mph - 0.04 in Rain Light Rain
3:56 AM 68.0 °F - 66.0 °F 93% 29.77 in 3.0 mi Calm Calm - 0.09 in Rain Rain
4:26 AM 66.2 °F - 66.2 °F 100% 29.79 in 4.0 mi West 3.5 mph - 0.05 in Rain Light Rain
4:56 AM 66.9 °F - 66.0 °F 97% 29.76 in 6.0 mi Calm Calm - 0.09 in Rain Light Rain
5:56 AM 68.0 °F - 66.0 °F 93% 29.75 in 7.0 mi Calm Calm - 0.01 in Rain Light Rain
6:43 AM 66.2 °F - 66.2 °F 100% 29.78 in 6.0 mi Calm Calm - 0.02 in Rain Light Rain
6:56 AM 66.9 °F - 66.0 °F 97% 29.75 in 4.0 mi Calm Calm - 0.04 in Rain Light Rain
7:25 AM 66.2 °F - 66.2 °F 100% 29.77 in 8.0 mi Calm Calm - 0.03 in Rain Light Rain
7:41 AM 66.2 °F - 66.2 °F 100% 29.77 in 9.0 mi Calm Calm - 0.03 in   Mostly Cloudy
7:47 AM 68.0 °F - 66.2 °F 94% 29.77 in 8.0 mi SW 3.5 mph - 0.03 in   Mostly Cloudy
7:56 AM 68.0 °F - 66.0 °F 93% 29.75 in 7.0 mi SW 3.5 mph - 0.03 in   Overcast
8:31 AM 68.0 °F - 66.2 °F 94% 29.77 in 2.5 mi SSW 3.5 mph - N/A   Overcast
8:42 AM 68.0 °F - 66.2 °F 94% 29.77 in 3.0 mi SW 5.8 mph - N/A   Overcast
8:56 AM 68.0 °F - 66.9 °F 96% 29.75 in 4.0 mi SW 4.6 mph - N/A   Overcast
9:22 AM 69.8 °F - 66.2 °F 88% 29.78 in 6.0 mi Calm Calm - N/A   Overcast
9:56 AM 69.1 °F - 66.9 °F 93% 29.75 in 6.0 mi SSW 5.8 mph - N/A   Overcast
10:26 AM 69.8 °F - 66.2 °F 88% 29.77 in 6.0 mi Calm Calm - N/A   Overcast
10:43 AM 69.8 °F - 66.2 °F 88% 29.76 in 4.0 mi Calm Calm - 0.00 in Rain Light Rain
10:56 AM 71.1 °F - 68.0 °F 90% 29.74 in 5.0 mi Calm Calm - 0.00 in Rain Light Rain
11:04 AM 71.6 °F - 66.2 °F 83% 29.76 in 6.0 mi Calm Calm - 0.00 in   Overcast
11:11 AM 71.6 °F - 66.2 °F 83% 29.76 in 7.0 mi Calm Calm - 0.00 in   Overcast
11:23 AM 71.6 °F - 66.2 °F 83% 29.76 in 8.0 mi West 3.5 mph - 0.00 in   Overcast
11:32 AM 73.4 °F - 68.0 °F 83% 29.76 in 8.0 mi Calm Calm - 0.00 in   Overcast
11:56 AM 73.0 °F - 66.9 °F 81% 29.74 in 8.0 mi Calm Calm - 0.00 in   Overcast
12:52 PM 75.2 °F - 68.0 °F 78% 29.75 in 10.0 mi NNE 5.8 mph - N/A   Overcast
12:56 PM 75.0 °F - 68.0 °F 79% 29.73 in 10.0 mi NNE 5.8 mph - N/A   Overcast
1:06 PM 73.4 °F - 66.2 °F 78% 29.75 in 10.0 mi North 4.6 mph - N/A   Overcast
1:46 PM 75.2 °F - 68.0 °F 78% 29.75 in 10.0 mi NNE 9.2 mph - 0.00 in   Overcast
1:54 PM 75.2 °F - 66.2 °F 73% 29.75 in 10.0 mi NNE 8.1 mph - 0.00 in   Overcast
1:56 PM 75.0 °F - 66.9 °F 76% 29.73 in 10.0 mi NNE 8.1 mph - 0.00 in   Overcast
2:53 PM 75.2 °F - 66.2 °F 73% 29.74 in 10.0 mi NNE 9.2 mph - N/A   Mostly Cloudy
2:56 PM 75.9 °F - 68.0 °F 76% 29.72 in 10.0 mi North 9.2 mph - N/A   Mostly Cloudy
3:13 PM 75.2 °F - 68.0 °F 78% 29.74 in 10.0 mi NNE 9.2 mph - N/A   Mostly Cloudy
3:56 PM 79.0 °F - 68.0 °F 69% 29.71 in 10.0 mi North 5.8 mph - N/A   Scattered Clouds
4:56 PM 80.1 °F 82.3 °F 66.9 °F 64% 29.69 in 10.0 mi Variable 6.9 mph - N/A   Scattered Clouds
5:56 PM 79.0 °F - 66.0 °F 64% 29.69 in 10.0 mi NW 6.9 mph - N/A   Clear
6:56 PM 77.0 °F - 66.0 °F 69% 29.69 in 10.0 mi NNW 9.2 mph - N/A   Partly Cloudy
7:56 PM 75.9 °F - 68.0 °F 76% 29.71 in 9.0 mi West 3.5 mph - N/A   Clear
8:35 PM 75.2 °F - 68.0 °F 78% 29.71 in 9.0 mi Calm Calm - N/A Thunderstorm Partly Cloudy
8:56 PM 73.9 °F - 69.1 °F 85% 29.73 in 8.0 mi West 6.9 mph - 0.00 in Rain , Thunderstorm Light Rain
9:19 PM 69.8 °F - 66.2 °F 88% 29.74 in 5.0 mi West 13.8 mph 20.7 mph 0.06 in Rain , Thunderstorm Light Thunderstorms and Rain
9:26 PM 68.0 °F - 66.2 °F 94% 29.74 in 10.0 mi West 8.1 mph 19.6 mph 0.06 in Rain , Thunderstorm Light Rain
9:39 PM 68.0 °F - 66.2 °F 94% 29.72 in 10.0 mi WNW 4.6 mph - 0.06 in   Mostly Cloudy
9:56 PM 69.1 °F - 66.0 °F 90% 29.69 in 10.0 mi North 5.8 mph - 0.06 in   Scattered Clouds
10:56 PM 68.0 °F - 66.0 °F 93% 29.68 in 10.0 mi West 3.5 mph - N/A   Clear
11:56 PM 66.9 °F - 64.9 °F 93% 29.66 in 9.0 mi WSW 3.5 mph - N/A   Clear